Year,Month,Day,Hour,Minute,Value (Times are PST for temperature in C)
2011,08,20,00,00,12.90
2011,08,20,00,01,12.90
2011,08,20,00,02,12.90
2011,08,20,00,03,12.90
2011,08,20,00,04,12.90
2011,08,20,00,05,12.90
2011,08,20,00,06,12.90
2011,08,20,00,07,12.80
2011,08,20,00,08,12.80
2011,08,20,00,09,12.80
2011,08,20,00,10,12.80
2011,08,20,00,11,12.80
2011,08,20,00,12,12.80
2011,08,20,00,13,12.80
2011,08,20,00,14,12.80
2011,08,20,00,15,12.80
2011,08,20,00,16,12.70
2011,08,20,00,17,12.70
2011,08,20,00,18,12.60
2011,08,20,00,19,12.60
2011,08,20,00,20,12.60
2011,08,20,00,21,12.50
2011,08,20,00,22,12.50
2011,08,20,00,23,12.50
2011,08,20,00,24,12.50
2011,08,20,00,25,12.40
2011,08,20,00,26,12.40
2011,08,20,00,27,12.40
2011,08,20,00,28,12.40
2011,08,20,00,29,12.40
2011,08,20,00,30,12.40
2011,08,20,00,31,12.40
2011,08,20,00,32,12.40
2011,08,20,00,33,12.40
2011,08,20,00,34,12.40
2011,08,20,00,35,12.40
2011,08,20,00,36,12.30
2011,08,20,00,37,12.30
2011,08,20,00,38,12.30
2011,08,20,00,39,12.30
2011,08,20,00,40,12.30
2011,08,20,00,41,12.30
2011,08,20,00,42,12.30
2011,08,20,00,43,12.20
2011,08,20,00,44,12.20
2011,08,20,00,45,12.20
2011,08,20,00,46,12.10
2011,08,20,00,47,12.10
2011,08,20,00,48,12.10
2011,08,20,00,49,12.00
2011,08,20,00,50,12.00
2011,08,20,00,51,12.00
2011,08,20,00,52,12.00
2011,08,20,00,53,12.00
2011,08,20,00,54,11.90
2011,08,20,00,55,11.90
2011,08,20,00,56,11.90
2011,08,20,00,57,11.80
2011,08,20,00,58,11.80
2011,08,20,00,59,11.80
2011,08,20,01,00,11.80
2011,08,20,01,01,11.80
2011,08,20,01,02,11.80
2011,08,20,01,03,11.80
2011,08,20,01,04,11.80
2011,08,20,01,05,11.80
2011,08,20,01,06,11.80
2011,08,20,01,07,11.80
2011,08,20,01,08,11.80
2011,08,20,01,09,11.80
2011,08,20,01,10,11.80
2011,08,20,01,11,11.80
2011,08,20,01,12,11.70
2011,08,20,01,13,11.70
2011,08,20,01,14,11.70
2011,08,20,01,15,11.70
2011,08,20,01,16,11.70
2011,08,20,01,17,11.70
2011,08,20,01,18,11.70
2011,08,20,01,19,11.70
2011,08,20,01,20,11.70
2011,08,20,01,21,11.70
2011,08,20,01,22,11.70
2011,08,20,01,23,11.70
2011,08,20,01,24,11.60
2011,08,20,01,25,11.60
2011,08,20,01,26,11.60
2011,08,20,01,27,11.60
2011,08,20,01,28,11.60
2011,08,20,01,29,11.60
2011,08,20,01,30,11.60
2011,08,20,01,31,11.60
2011,08,20,01,32,11.60
2011,08,20,01,33,11.60
2011,08,20,01,34,11.60
2011,08,20,01,35,11.60
2011,08,20,01,36,11.60
2011,08,20,01,37,11.60
2011,08,20,01,38,11.60
2011,08,20,01,39,11.60
2011,08,20,01,40,11.60
2011,08,20,01,41,11.60
2011,08,20,01,42,11.60
2011,08,20,01,43,11.60
2011,08,20,01,44,11.60
2011,08,20,01,45,11.60
2011,08,20,01,46,11.60
2011,08,20,01,47,11.60
2011,08,20,01,48,11.60
2011,08,20,01,49,11.60
2011,08,20,01,50,11.60
2011,08,20,01,51,11.50
2011,08,20,01,52,11.40
2011,08,20,01,53,11.40
2011,08,20,01,54,11.40
2011,08,20,01,55,11.40
2011,08,20,01,56,11.40
2011,08,20,01,57,11.40
2011,08,20,01,58,11.40
2011,08,20,01,59,11.40
2011,08,20,02,00,11.40
2011,08,20,02,01,11.30
2011,08,20,02,02,11.30
2011,08,20,02,03,11.30
2011,08,20,02,04,11.30
2011,08,20,02,05,11.30
2011,08,20,02,06,11.30
2011,08,20,02,07,11.30
2011,08,20,02,08,11.30
2011,08,20,02,09,11.30
2011,08,20,02,10,11.30
2011,08,20,02,11,11.20
2011,08,20,02,12,11.20
2011,08,20,02,13,11.20
2011,08,20,02,14,11.20
2011,08,20,02,15,11.10
2011,08,20,02,16,11.10
2011,08,20,02,17,11.10
2011,08,20,02,18,11.10
2011,08,20,02,19,11.10
2011,08,20,02,20,11.10
2011,08,20,02,21,11.10
2011,08,20,02,22,11.10
2011,08,20,02,23,11.10
2011,08,20,02,24,11.10
2011,08,20,02,25,11.10
2011,08,20,02,26,11.10
2011,08,20,02,27,10.90
2011,08,20,02,28,10.90
2011,08,20,02,29,10.90
2011,08,20,02,30,10.90
2011,08,20,02,31,10.90
2011,08,20,02,32,10.90
2011,08,20,02,33,10.90
2011,08,20,02,34,10.90
2011,08,20,02,35,10.90
2011,08,20,02,36,10.90
2011,08,20,02,37,10.90
2011,08,20,02,38,10.90
2011,08,20,02,39,10.90
2011,08,20,02,40,10.90
2011,08,20,02,41,10.90
2011,08,20,02,42,10.90
2011,08,20,02,43,10.90
2011,08,20,02,44,10.90
2011,08,20,02,45,11.00
2011,08,20,02,46,10.90
2011,08,20,02,47,10.90
2011,08,20,02,48,10.90
2011,08,20,02,49,10.90
2011,08,20,02,50,10.90
2011,08,20,02,51,10.90
2011,08,20,02,52,10.90
2011,08,20,02,53,10.90
2011,08,20,02,54,10.90
2011,08,20,02,55,10.90
2011,08,20,02,56,10.80
2011,08,20,02,57,10.80
2011,08,20,02,58,10.80
2011,08,20,02,59,10.80
2011,08,20,03,00,10.80
2011,08,20,03,01,10.80
2011,08,20,03,02,10.70
2011,08,20,03,03,10.70
2011,08,20,03,04,10.70
2011,08,20,03,05,10.70
2011,08,20,03,06,10.70
2011,08,20,03,07,10.70
2011,08,20,03,08,10.70
2011,08,20,03,09,10.60
2011,08,20,03,10,10.60
2011,08,20,03,11,10.60
2011,08,20,03,12,10.60
2011,08,20,03,13,10.60
2011,08,20,03,14,10.60
2011,08,20,03,15,10.60
2011,08,20,03,16,10.60
2011,08,20,03,17,10.60
2011,08,20,03,18,10.60
2011,08,20,03,19,10.60
2011,08,20,03,20,10.60
2011,08,20,03,21,10.60
2011,08,20,03,22,10.60
2011,08,20,03,23,10.40
2011,08,20,03,24,10.40
2011,08,20,03,25,10.40
2011,08,20,03,26,10.40
2011,08,20,03,27,10.60
2011,08,20,03,28,10.60
2011,08,20,03,29,10.60
2011,08,20,03,30,10.60
2011,08,20,03,31,10.60
2011,08,20,03,32,10.60
2011,08,20,03,33,10.60
2011,08,20,03,34,10.60
2011,08,20,03,35,10.60
2011,08,20,03,36,10.60
2011,08,20,03,37,10.60
2011,08,20,03,38,10.60
2011,08,20,03,39,10.60
2011,08,20,03,40,10.60
2011,08,20,03,41,10.60
2011,08,20,03,42,10.60
2011,08,20,03,43,10.60
2011,08,20,03,44,10.60
2011,08,20,03,45,10.60
2011,08,20,03,46,10.60
2011,08,20,03,47,10.60
2011,08,20,03,48,10.60
2011,08,20,03,49,10.50
2011,08,20,03,50,10.40
2011,08,20,03,51,10.40
2011,08,20,03,52,10.40
2011,08,20,03,53,10.40
2011,08,20,03,54,10.40
2011,08,20,03,55,10.40
2011,08,20,03,56,10.40
2011,08,20,03,57,10.40
2011,08,20,03,58,10.50
2011,08,20,03,59,10.50
2011,08,20,04,00,10.60
2011,08,20,04,01,10.60
2011,08,20,04,02,10.60
2011,08,20,04,03,10.60
2011,08,20,04,04,10.60
2011,08,20,04,05,10.60
2011,08,20,04,06,10.50
2011,08,20,04,07,10.40
2011,08,20,04,08,10.40
2011,08,20,04,09,10.40
2011,08,20,04,10,10.40
2011,08,20,04,11,10.40
2011,08,20,04,12,10.40
2011,08,20,04,13,10.40
2011,08,20,04,14,10.30
2011,08,20,04,15,10.30
2011,08,20,04,16,10.30
2011,08,20,04,17,10.30
2011,08,20,04,18,10.20
2011,08,20,04,19,10.20
2011,08,20,04,20,10.20
2011,08,20,04,21,10.20
2011,08,20,04,22,10.20
2011,08,20,04,23,10.10
2011,08,20,04,24,10.10
2011,08,20,04,25,10.10
2011,08,20,04,26,10.10
2011,08,20,04,27,10.10
2011,08,20,04,28,10.10
2011,08,20,04,29,10.10
2011,08,20,04,30,10.10
2011,08,20,04,31,10.10
2011,08,20,04,32,10.20
2011,08,20,04,33,10.20
2011,08,20,04,34,10.20
2011,08,20,04,35,10.20
2011,08,20,04,36,10.20
2011,08,20,04,37,10.20
2011,08,20,04,38,10.10
2011,08,20,04,39,10.10
2011,08,20,04,40,10.10
2011,08,20,04,41,10.10
2011,08,20,04,42,10.10
2011,08,20,04,43,10.10
2011,08,20,04,44,10.10
2011,08,20,04,45,10.10
2011,08,20,04,46,10.10
2011,08,20,04,47,10.10
2011,08,20,04,48,10.20
2011,08,20,04,49,10.20
2011,08,20,04,50,10.20
2011,08,20,04,51,10.20
2011,08,20,04,52,10.30
2011,08,20,04,53,10.30
2011,08,20,04,54,10.30
2011,08,20,04,55,10.30
2011,08,20,04,56,10.30
2011,08,20,04,57,10.30
2011,08,20,04,58,10.30
2011,08,20,04,59,10.30
2011,08,20,05,00,10.30
2011,08,20,05,01,10.20
2011,08,20,05,02,10.20
2011,08,20,05,03,10.20
2011,08,20,05,04,10.20
2011,08,20,05,05,10.20
2011,08,20,05,06,10.20
2011,08,20,05,07,10.10
2011,08,20,05,08,10.10
2011,08,20,05,09,10.10
2011,08,20,05,10,10.10
2011,08,20,05,11,10.10
2011,08,20,05,12,10.10
2011,08,20,05,13,10.10
2011,08,20,05,14,10.10
2011,08,20,05,15,10.10
2011,08,20,05,16,10.10
2011,08,20,05,17,10.10
2011,08,20,05,18,10.10
2011,08,20,05,19,10.10
2011,08,20,05,20,10.10
2011,08,20,05,21,10.10
2011,08,20,05,22,10.10
2011,08,20,05,23,10.10
2011,08,20,05,24,10.10
2011,08,20,05,25,10.10
2011,08,20,05,26,10.10
2011,08,20,05,27,10.10
2011,08,20,05,28,10.10
2011,08,20,05,29,10.10
2011,08,20,05,30,10.10
2011,08,20,05,31,10.10
2011,08,20,05,32,10.00
2011,08,20,05,33,9.90
2011,08,20,05,34,9.90
2011,08,20,05,35,9.90
2011,08,20,05,36,9.90
2011,08,20,05,37,9.90
2011,08,20,05,38,9.90
2011,08,20,05,39,9.90
2011,08,20,05,40,9.80
2011,08,20,05,41,9.80
2011,08,20,05,42,9.80
2011,08,20,05,43,9.70
2011,08,20,05,44,9.70
2011,08,20,05,45,9.70
2011,08,20,05,46,9.70
2011,08,20,05,47,9.70
2011,08,20,05,48,9.70
2011,08,20,05,49,9.70
2011,08,20,05,50,9.70
2011,08,20,05,51,9.70
2011,08,20,05,52,9.70
2011,08,20,05,53,9.70
2011,08,20,05,54,9.70
2011,08,20,05,55,9.60
2011,08,20,05,56,9.60
2011,08,20,05,57,9.60
2011,08,20,05,58,9.60
2011,08,20,05,59,9.60
2011,08,20,06,00,9.60
2011,08,20,06,01,9.60
2011,08,20,06,02,9.60
2011,08,20,06,03,9.60
2011,08,20,06,04,9.60
2011,08,20,06,05,9.60
2011,08,20,06,06,9.60
2011,08,20,06,07,9.60
2011,08,20,06,08,9.60
2011,08,20,06,09,9.60
2011,08,20,06,10,9.60
2011,08,20,06,11,9.60
2011,08,20,06,12,9.60
2011,08,20,06,13,9.60
2011,08,20,06,14,9.60
2011,08,20,06,15,9.70
2011,08,20,06,16,9.70
2011,08,20,06,17,9.70
2011,08,20,06,18,9.70
2011,08,20,06,19,9.70
2011,08,20,06,20,9.70
2011,08,20,06,21,9.70
2011,08,20,06,22,9.70
2011,08,20,06,23,9.70
2011,08,20,06,24,9.70
2011,08,20,06,25,9.70
2011,08,20,06,26,9.70
2011,08,20,06,27,9.70
2011,08,20,06,28,9.70
2011,08,20,06,29,9.70
2011,08,20,06,30,9.70
2011,08,20,06,31,9.70
2011,08,20,06,32,9.70
2011,08,20,06,33,9.70
2011,08,20,06,34,9.70
2011,08,20,06,35,9.80
2011,08,20,06,36,9.80
2011,08,20,06,37,9.80
2011,08,20,06,38,9.80
2011,08,20,06,39,9.80
2011,08,20,06,40,9.80
2011,08,20,06,41,9.70
2011,08,20,06,42,9.70
2011,08,20,06,43,9.70
2011,08,20,06,44,9.70
2011,08,20,06,45,9.70
2011,08,20,06,46,9.70
2011,08,20,06,47,9.70
2011,08,20,06,48,9.70
2011,08,20,06,49,9.70
2011,08,20,06,50,9.70
2011,08,20,06,51,9.70
2011,08,20,06,52,9.80
2011,08,20,06,53,9.80
2011,08,20,06,54,9.90
2011,08,20,06,55,9.90
2011,08,20,06,56,10.00
2011,08,20,06,57,10.10
2011,08,20,06,58,10.10
2011,08,20,06,59,10.10
2011,08,20,07,00,10.20
2011,08,20,07,01,10.30
2011,08,20,07,02,10.30
2011,08,20,07,03,10.40
2011,08,20,07,04,10.50
2011,08,20,07,05,10.60
2011,08,20,07,06,10.60
2011,08,20,07,07,10.70
2011,08,20,07,08,10.70
2011,08,20,07,09,10.70
2011,08,20,07,10,10.80
2011,08,20,07,11,10.80
2011,08,20,07,12,10.80
2011,08,20,07,13,10.80
2011,08,20,07,14,10.90
2011,08,20,07,15,10.90
2011,08,20,07,16,10.90
2011,08,20,07,17,11.00
2011,08,20,07,18,11.10
2011,08,20,07,19,11.10
2011,08,20,07,20,11.10
2011,08,20,07,21,11.20
2011,08,20,07,22,11.20
2011,08,20,07,23,11.30
2011,08,20,07,24,11.30
2011,08,20,07,25,11.40
2011,08,20,07,26,11.40
2011,08,20,07,27,11.50
2011,08,20,07,28,11.60
2011,08,20,07,29,11.60
2011,08,20,07,30,11.70
2011,08,20,07,31,11.80
2011,08,20,07,32,11.80
2011,08,20,07,33,11.90
2011,08,20,07,34,12.00
2011,08,20,07,35,12.10
2011,08,20,07,36,12.20
2011,08,20,07,37,12.30
2011,08,20,07,38,12.40
2011,08,20,07,39,12.50
2011,08,20,07,40,12.60
2011,08,20,07,41,12.70
2011,08,20,07,42,12.90
2011,08,20,07,43,13.00
2011,08,20,07,44,13.10
2011,08,20,07,45,13.30
2011,08,20,07,46,13.40
2011,08,20,07,47,13.60
2011,08,20,07,48,13.70
2011,08,20,07,49,13.80
2011,08,20,07,50,14.00
2011,08,20,07,51,14.10
2011,08,20,07,52,14.20
2011,08,20,07,53,14.40
2011,08,20,07,54,14.50
2011,08,20,07,55,14.60
2011,08,20,07,56,14.70
2011,08,20,07,57,14.80
2011,08,20,07,58,14.80
2011,08,20,07,59,14.90
2011,08,20,08,00,14.90
2011,08,20,08,01,15.00
2011,08,20,08,02,15.10
2011,08,20,08,03,15.20
2011,08,20,08,04,15.30
2011,08,20,08,05,15.50
2011,08,20,08,06,15.60
2011,08,20,08,07,15.80
2011,08,20,08,08,15.90
2011,08,20,08,09,16.00
2011,08,20,08,10,16.10
2011,08,20,08,11,16.20
2011,08,20,08,12,16.30
2011,08,20,08,13,16.40
2011,08,20,08,14,16.50
2011,08,20,08,15,16.60
2011,08,20,08,16,16.70
2011,08,20,08,17,16.70
2011,08,20,08,18,16.70
2011,08,20,08,19,16.80
2011,08,20,08,20,16.80
2011,08,20,08,21,16.90
2011,08,20,08,22,17.00
2011,08,20,08,23,17.00
2011,08,20,08,24,17.10
2011,08,20,08,25,17.30
2011,08,20,08,26,17.30
2011,08,20,08,27,17.40
2011,08,20,08,28,17.50
2011,08,20,08,29,17.60
2011,08,20,08,30,17.70
2011,08,20,08,31,17.70
2011,08,20,08,32,17.80
2011,08,20,08,33,17.80
2011,08,20,08,34,17.90
2011,08,20,08,35,17.90
2011,08,20,08,36,17.90
2011,08,20,08,37,18.10
2011,08,20,08,38,18.10
2011,08,20,08,39,18.20
2011,08,20,08,40,18.30
2011,08,20,08,41,18.40
2011,08,20,08,42,18.50
2011,08,20,08,43,18.60
2011,08,20,08,44,18.70
2011,08,20,08,45,18.90
2011,08,20,08,46,19.00
2011,08,20,08,47,19.10
2011,08,20,08,48,19.10
2011,08,20,08,49,19.30
2011,08,20,08,50,19.30
2011,08,20,08,51,19.40
2011,08,20,08,52,19.50
2011,08,20,08,53,19.60
2011,08,20,08,54,19.60
2011,08,20,08,55,19.70
2011,08,20,08,56,19.80
2011,08,20,08,57,19.80
2011,08,20,08,58,19.90
2011,08,20,08,59,20.10
2011,08,20,09,00,20.20
2011,08,20,09,01,20.20
2011,08,20,09,02,20.20
2011,08,20,09,03,20.30
2011,08,20,09,04,20.30
2011,08,20,09,05,20.30
2011,08,20,09,06,20.40
2011,08,20,09,07,20.40
2011,08,20,09,08,20.50
2011,08,20,09,09,20.50
2011,08,20,09,10,20.50
2011,08,20,09,11,20.50
2011,08,20,09,12,20.50
2011,08,20,09,13,20.60
2011,08,20,09,14,20.60
2011,08,20,09,15,20.70
2011,08,20,09,16,20.70
2011,08,20,09,17,20.70
2011,08,20,09,18,20.70
2011,08,20,09,19,20.80
2011,08,20,09,20,20.90
2011,08,20,09,21,20.90
2011,08,20,09,22,20.90
2011,08,20,09,23,20.90
2011,08,20,09,24,21.00
2011,08,20,09,25,21.00
2011,08,20,09,26,21.00
2011,08,20,09,27,21.10
2011,08,20,09,28,21.10
2011,08,20,09,29,21.20
2011,08,20,09,30,21.30
2011,08,20,09,31,21.30
2011,08,20,09,32,21.30
2011,08,20,09,33,21.40
2011,08,20,09,34,21.50
2011,08,20,09,35,21.60
2011,08,20,09,36,21.60
2011,08,20,09,37,21.70
2011,08,20,09,38,21.80
2011,08,20,09,39,21.80
2011,08,20,09,40,21.80
2011,08,20,09,41,21.80
2011,08,20,09,42,21.80
2011,08,20,09,43,21.70
2011,08,20,09,44,21.70
2011,08,20,09,45,21.80
2011,08,20,09,46,21.80
2011,08,20,09,47,21.90
2011,08,20,09,48,21.90
2011,08,20,09,49,21.80
2011,08,20,09,50,21.70
2011,08,20,09,51,21.70
2011,08,20,09,52,21.60
2011,08,20,09,53,21.60
2011,08,20,09,54,21.60
2011,08,20,09,55,21.60
2011,08,20,09,56,21.60
2011,08,20,09,57,21.70
2011,08,20,09,58,21.80
2011,08,20,09,59,21.80
2011,08,20,10,00,21.90
2011,08,20,10,01,21.80
2011,08,20,10,02,21.80
2011,08,20,10,03,21.90
2011,08,20,10,04,22.00
2011,08,20,10,05,22.10
2011,08,20,10,06,22.20
2011,08,20,10,07,22.30
2011,08,20,10,08,22.30
2011,08,20,10,09,22.40
2011,08,20,10,10,22.60
2011,08,20,10,11,22.60
2011,08,20,10,12,22.60
2011,08,20,10,13,22.60
2011,08,20,10,14,22.50
2011,08,20,10,15,22.30
2011,08,20,10,16,22.20
2011,08,20,10,17,22.10
2011,08,20,10,18,22.00
2011,08,20,10,19,22.00
2011,08,20,10,20,21.90
2011,08,20,10,21,21.70
2011,08,20,10,22,21.70
2011,08,20,10,23,21.80
2011,08,20,10,24,22.00
2011,08,20,10,25,22.10
2011,08,20,10,26,22.20
2011,08,20,10,27,22.20
2011,08,20,10,28,22.20
2011,08,20,10,29,22.20
2011,08,20,10,30,22.30
2011,08,20,10,31,22.30
2011,08,20,10,32,22.30
2011,08,20,10,33,22.40
2011,08,20,10,34,22.50
2011,08,20,10,35,22.40
2011,08,20,10,36,22.40
2011,08,20,10,37,22.30
2011,08,20,10,38,22.20
2011,08,20,10,39,22.10
2011,08,20,10,40,22.10
2011,08,20,10,41,22.20
2011,08,20,10,42,22.20
2011,08,20,10,43,22.10
2011,08,20,10,44,22.10
2011,08,20,10,45,22.10
2011,08,20,10,46,22.10
2011,08,20,10,47,22.10
2011,08,20,10,48,22.10
2011,08,20,10,49,22.10
2011,08,20,10,50,22.20
2011,08,20,10,51,22.20
2011,08,20,10,52,22.10
2011,08,20,10,53,22.20
2011,08,20,10,54,22.40
2011,08,20,10,55,22.60
2011,08,20,10,56,22.70
2011,08,20,10,57,22.90
2011,08,20,10,58,23.00
2011,08,20,10,59,23.10
2011,08,20,11,00,23.10
2011,08,20,11,01,22.90
2011,08,20,11,02,22.90
2011,08,20,11,03,22.90
2011,08,20,11,04,22.90
2011,08,20,11,05,22.90
2011,08,20,11,06,22.90
2011,08,20,11,07,23.00
2011,08,20,11,08,23.10
2011,08,20,11,09,23.10
2011,08,20,11,10,23.20
2011,08,20,11,11,23.20
2011,08,20,11,12,23.30
2011,08,20,11,13,23.30
2011,08,20,11,14,23.30
2011,08,20,11,15,23.30
2011,08,20,11,16,23.30
2011,08,20,11,17,23.30
2011,08,20,11,18,23.30
2011,08,20,11,19,23.50
2011,08,20,11,20,23.60
2011,08,20,11,21,23.50
2011,08,20,11,22,23.40
2011,08,20,11,23,23.40
2011,08,20,11,24,23.30
2011,08,20,11,25,23.20
2011,08,20,11,26,23.00
2011,08,20,11,27,23.00
2011,08,20,11,28,23.00
2011,08,20,11,29,23.10
2011,08,20,11,30,23.20
2011,08,20,11,31,23.20
2011,08,20,11,32,23.30
2011,08,20,11,33,23.30
2011,08,20,11,34,23.20
2011,08,20,11,35,23.20
2011,08,20,11,36,23.20
2011,08,20,11,37,23.10
2011,08,20,11,38,23.00
2011,08,20,11,39,22.90
2011,08,20,11,40,22.90
2011,08,20,11,41,22.90
2011,08,20,11,42,22.90
2011,08,20,11,43,22.90
2011,08,20,11,44,23.00
2011,08,20,11,45,22.90
2011,08,20,11,46,23.00
2011,08,20,11,47,23.10
2011,08,20,11,48,23.10
2011,08,20,11,49,23.30
2011,08,20,11,50,23.30
2011,08,20,11,51,23.30
2011,08,20,11,52,23.20
2011,08,20,11,53,23.20
2011,08,20,11,54,23.10
2011,08,20,11,55,23.10
2011,08,20,11,56,23.10
2011,08,20,11,57,23.10
2011,08,20,11,58,23.10
2011,08,20,11,59,23.10
2011,08,20,12,00,23.20
2011,08,20,12,01,23.40
2011,08,20,12,02,23.60
2011,08,20,12,03,23.70
2011,08,20,12,04,23.70
2011,08,20,12,05,23.70
2011,08,20,12,06,23.70
2011,08,20,12,07,23.70
2011,08,20,12,08,23.70
2011,08,20,12,09,23.60
2011,08,20,12,10,23.60
2011,08,20,12,11,23.60
2011,08,20,12,12,23.70
2011,08,20,12,13,23.70
2011,08,20,12,14,23.80
2011,08,20,12,15,23.90
2011,08,20,12,16,24.10
2011,08,20,12,17,24.10
2011,08,20,12,18,24.20
2011,08,20,12,19,24.30
2011,08,20,12,20,24.40
2011,08,20,12,21,24.50
2011,08,20,12,22,24.70
2011,08,20,12,23,24.80
2011,08,20,12,24,24.90
2011,08,20,12,25,24.90
2011,08,20,12,26,24.90
2011,08,20,12,27,25.00
2011,08,20,12,28,25.00
2011,08,20,12,29,25.00
2011,08,20,12,30,24.90
2011,08,20,12,31,24.70
2011,08,20,12,32,24.60
2011,08,20,12,33,24.60
2011,08,20,12,34,24.60
2011,08,20,12,35,24.70
2011,08,20,12,36,24.60
2011,08,20,12,37,24.50
2011,08,20,12,38,24.50
2011,08,20,12,39,24.40
2011,08,20,12,40,24.40
2011,08,20,12,41,24.40
2011,08,20,12,42,24.50
2011,08,20,12,43,24.60
2011,08,20,12,44,24.60
2011,08,20,12,45,24.50
2011,08,20,12,46,24.50
2011,08,20,12,47,24.60
2011,08,20,12,48,24.60
2011,08,20,12,49,24.70
2011,08,20,12,50,24.80
2011,08,20,12,51,24.90
2011,08,20,12,52,25.10
2011,08,20,12,53,25.20
2011,08,20,12,54,25.30
2011,08,20,12,55,25.40
2011,08,20,12,56,25.50
2011,08,20,12,57,25.50
2011,08,20,12,58,25.40
2011,08,20,12,59,25.20
2011,08,20,13,00,25.30
2011,08,20,13,01,25.30
2011,08,20,13,02,25.40
2011,08,20,13,03,25.40
2011,08,20,13,04,25.50
2011,08,20,13,05,25.60
2011,08,20,13,06,25.60
2011,08,20,13,07,25.50
2011,08,20,13,08,25.40
2011,08,20,13,09,25.30
2011,08,20,13,10,25.30
2011,08,20,13,11,25.30
2011,08,20,13,12,25.40
2011,08,20,13,13,25.40
2011,08,20,13,14,25.50
2011,08,20,13,15,25.60
2011,08,20,13,16,25.70
2011,08,20,13,17,25.70
2011,08,20,13,18,25.80
2011,08,20,13,19,25.90
2011,08,20,13,20,25.90
2011,08,20,13,21,26.00
2011,08,20,13,22,26.00
2011,08,20,13,23,26.10
2011,08,20,13,24,26.10
2011,08,20,13,25,26.10
2011,08,20,13,26,26.00
2011,08,20,13,27,25.90
2011,08,20,13,28,25.90
2011,08,20,13,29,26.00
2011,08,20,13,30,26.10
2011,08,20,13,31,26.30
2011,08,20,13,32,26.40
2011,08,20,13,33,26.50
2011,08,20,13,34,26.60
2011,08,20,13,35,26.60
2011,08,20,13,36,26.60
2011,08,20,13,37,26.60
2011,08,20,13,38,26.60
2011,08,20,13,39,26.60
2011,08,20,13,40,26.60
2011,08,20,13,41,26.50
2011,08,20,13,42,26.30
2011,08,20,13,43,26.20
2011,08,20,13,44,26.30
2011,08,20,13,45,26.40
2011,08,20,13,46,26.50
2011,08,20,13,47,26.60
2011,08,20,13,48,26.60
2011,08,20,13,49,26.60
2011,08,20,13,50,26.80
2011,08,20,13,51,26.80
2011,08,20,13,52,26.90
2011,08,20,13,53,26.90
2011,08,20,13,54,26.90
2011,08,20,13,55,26.90
2011,08,20,13,56,27.00
2011,08,20,13,57,27.10
2011,08,20,13,58,26.90
2011,08,20,13,59,26.90
2011,08,20,14,00,27.00
2011,08,20,14,01,27.10
2011,08,20,14,02,27.10
2011,08,20,14,03,27.00
2011,08,20,14,04,26.90
2011,08,20,14,05,26.90
2011,08,20,14,06,26.90
2011,08,20,14,07,26.80
2011,08,20,14,08,26.80
2011,08,20,14,09,26.80
2011,08,20,14,10,26.80
2011,08,20,14,11,26.80
2011,08,20,14,12,26.70
2011,08,20,14,13,26.60
2011,08,20,14,14,26.60
2011,08,20,14,15,26.60
2011,08,20,14,16,26.60
2011,08,20,14,17,26.70
2011,08,20,14,18,26.70
2011,08,20,14,19,26.80
2011,08,20,14,20,26.90
2011,08,20,14,21,27.10
2011,08,20,14,22,27.00
2011,08,20,14,23,26.80
2011,08,20,14,24,26.80
2011,08,20,14,25,26.90
2011,08,20,14,26,27.00
2011,08,20,14,27,27.10
2011,08,20,14,28,27.10
2011,08,20,14,29,27.10
2011,08,20,14,30,27.10
2011,08,20,14,31,27.10
2011,08,20,14,32,27.00
2011,08,20,14,33,26.90
2011,08,20,14,34,26.80
2011,08,20,14,35,26.80
2011,08,20,14,36,26.90
2011,08,20,14,37,27.10
2011,08,20,14,38,27.20
2011,08,20,14,39,27.30
2011,08,20,14,40,27.30
2011,08,20,14,41,27.30
2011,08,20,14,42,27.30
2011,08,20,14,43,27.30
2011,08,20,14,44,27.30
2011,08,20,14,45,27.30
2011,08,20,14,46,27.40
2011,08,20,14,47,27.50
2011,08,20,14,48,27.60
2011,08,20,14,49,27.60
2011,08,20,14,50,27.50
2011,08,20,14,51,27.30
2011,08,20,14,52,27.20
2011,08,20,14,53,27.10
2011,08,20,14,54,27.00
2011,08,20,14,55,26.90
2011,08,20,14,56,26.90
2011,08,20,14,57,26.90
2011,08,20,14,58,27.00
2011,08,20,14,59,27.20
2011,08,20,15,00,27.20
2011,08,20,15,01,27.30
2011,08,20,15,02,27.30
2011,08,20,15,03,27.30
2011,08,20,15,04,27.50
2011,08,20,15,05,27.60
2011,08,20,15,06,27.60
2011,08,20,15,07,27.60
2011,08,20,15,08,27.60
2011,08,20,15,09,27.70
2011,08,20,15,10,27.70
2011,08,20,15,11,27.70
2011,08,20,15,12,27.60
2011,08,20,15,13,27.60
2011,08,20,15,14,27.60
2011,08,20,15,15,27.40
2011,08,20,15,16,27.30
2011,08,20,15,17,27.30
2011,08,20,15,18,27.30
2011,08,20,15,19,27.10
2011,08,20,15,20,27.00
2011,08,20,15,21,26.90
2011,08,20,15,22,26.90
2011,08,20,15,23,27.00
2011,08,20,15,24,27.10
2011,08,20,15,25,27.20
2011,08,20,15,26,27.30
2011,08,20,15,27,27.30
2011,08,20,15,28,27.30
2011,08,20,15,29,27.30
2011,08,20,15,30,27.30
2011,08,20,15,31,27.40
2011,08,20,15,32,27.40
2011,08,20,15,33,27.40
2011,08,20,15,34,27.50
2011,08,20,15,35,27.60
2011,08,20,15,36,27.70
2011,08,20,15,37,27.70
2011,08,20,15,38,27.70
2011,08,20,15,39,27.70
2011,08,20,15,40,27.70
2011,08,20,15,41,27.80
2011,08,20,15,42,28.00
2011,08,20,15,43,28.20
2011,08,20,15,44,28.20
2011,08,20,15,45,28.30
2011,08,20,15,46,28.30
2011,08,20,15,47,28.40
2011,08,20,15,48,28.50
2011,08,20,15,49,28.60
2011,08,20,15,50,28.60
2011,08,20,15,51,28.60
2011,08,20,15,52,28.70
2011,08,20,15,53,28.70
2011,08,20,15,54,28.60
2011,08,20,15,55,28.40
2011,08,20,15,56,28.30
2011,08,20,15,57,28.10
2011,08,20,15,58,27.80
2011,08,20,15,59,27.40
2011,08,20,16,00,27.20
2011,08,20,16,01,27.00
2011,08,20,16,02,26.80
2011,08,20,16,03,26.80
2011,08,20,16,04,26.80
2011,08,20,16,05,26.80
2011,08,20,16,06,27.00
2011,08,20,16,07,27.10
2011,08,20,16,08,27.10
2011,08,20,16,09,27.10
2011,08,20,16,10,27.10
2011,08,20,16,11,26.90
2011,08,20,16,12,26.80
2011,08,20,16,13,26.70
2011,08,20,16,14,26.70
2011,08,20,16,15,26.60
2011,08,20,16,16,26.60
2011,08,20,16,17,26.60
2011,08,20,16,18,26.50
2011,08,20,16,19,26.40
2011,08,20,16,20,26.30
2011,08,20,16,21,26.30
2011,08,20,16,22,26.30
2011,08,20,16,23,26.30
2011,08,20,16,24,26.30
2011,08,20,16,25,26.30
2011,08,20,16,26,26.30
2011,08,20,16,27,26.30
2011,08,20,16,28,26.40
2011,08,20,16,29,26.40
2011,08,20,16,30,26.40
2011,08,20,16,31,26.40
2011,08,20,16,32,26.40
2011,08,20,16,33,26.30
2011,08,20,16,34,26.20
2011,08,20,16,35,26.20
2011,08,20,16,36,26.10
2011,08,20,16,37,26.00
2011,08,20,16,38,26.10
2011,08,20,16,39,26.00
2011,08,20,16,40,26.10
2011,08,20,16,41,26.10
2011,08,20,16,42,26.20
2011,08,20,16,43,26.20
2011,08,20,16,44,26.20
2011,08,20,16,45,26.30
2011,08,20,16,46,26.40
2011,08,20,16,47,26.40
2011,08,20,16,48,26.40
2011,08,20,16,49,26.40
2011,08,20,16,50,26.40
2011,08,20,16,51,26.40
2011,08,20,16,52,26.50
2011,08,20,16,53,26.60
2011,08,20,16,54,26.60
2011,08,20,16,55,26.60
2011,08,20,16,56,26.60
2011,08,20,16,57,26.50
2011,08,20,16,58,26.40
2011,08,20,16,59,26.40
2011,08,20,17,00,26.30
2011,08,20,17,01,26.30
2011,08,20,17,02,26.30
2011,08,20,17,03,26.30
2011,08,20,17,04,26.30
2011,08,20,17,05,26.30
2011,08,20,17,06,26.30
2011,08,20,17,07,26.40
2011,08,20,17,08,26.40
2011,08,20,17,09,26.40
2011,08,20,17,10,26.40
2011,08,20,17,11,26.60
2011,08,20,17,12,26.60
2011,08,20,17,13,26.60
2011,08,20,17,14,26.60
2011,08,20,17,15,26.60
2011,08,20,17,16,26.60
2011,08,20,17,17,26.50
2011,08,20,17,18,26.40
2011,08,20,17,19,26.30
2011,08,20,17,20,26.20
2011,08,20,17,21,26.20
2011,08,20,17,22,26.30
2011,08,20,17,23,26.30